Location: Luxembourg
(49.6117°N, 6.1300°E)
Time: 03:04:51
(UTC+01:00)

ISS - Pass Details

Date: 03 December 2021
Orbit: 413 x 422 km, 51.6° (Epoch: 22 January)

Event Time Altitude Azimuth Distance (km) Brightness Sun altitude
Rises 18:36:57 0° 288° (WNW) 2,385 1.1 -18.5°
Reaches altitude 10° 18:39:04 10° 286° (WNW) 1,516 0.0 -18.9°
Maximum altitude 18:42:27 64° 204° (SSW) 473 -3.5 -19.4°
Enters shadow 18:43:02 52° 153° (SSE) 534 -3.4 -19.5°
